Temperature
19 18 18 18 18 18 17 17 17 17 17 17 17 17 17 17 17 17 16 16 16 16 16 16 16 16 16 16 16 16 16 16 16 16 16 16 16 16 16 16 15 16 16
18 18 18 18 18 17 17 17 17 17 17 17 17 17 17 16 16 16 16 16 16 16 16 16 16 16 16 16 16 16 16 16 16 16 16 15 15 15 15 15 15 15 15
18 18 18 18 17 17 17 17 17 17 17 17 17 17 16 16 16 16 16 16 16 16 16 16 15 15 16 16 16 15 15 15 15 15 15 15 15 15 14 14 14 14 14
18 18 18 17 17 17 17 17 17 17 17 17 16 16 16 16 16 16 16 16 16 15 15 15 15 15 15 15 15 15 15 15 15 15 14 14 14 14 14 14 14 13 13
17 17 17 17 17 17 16 16 16 16 16 16 16 16 16 16 15 15 15 15 15 15 15 15 15 15 15 15 15 15 15 14 14 14 14 14 13 13 13 13 13 13 13
17 17 17 17 16 16 16 16 16 16 16 15 15 15 15 15 15 15 15 15 15 15 15 15 14 15 14 14 14 14 14 14 14 13 13 13 13 13 12 12 12 12 12
17 16 16 16 16 16 15 15 15 15 15 15 15 15 15 15 15 15 15 15 15 14 14 14 14 14 14 14 14 14 13 13 13 13 12 12 12 12 12 12 11 11 11
16 16 16 16 15 15 15 15 15 15 15 15 15 15 14 14 15 15 14 14 14 14 14 14 13 13 13 13 13 13 12 13 12 12 12 12 12 12 11 11 11 11 11
16 16 15 15 15 15 14 14 14 14 14 14 14 14 14 14 14 14 14 14 14 13 13 13 13 13 13 13 12 12 12 12 11 11 11 11 11 11 11 11 11 11 11
16 15 15 15 14 14 14 14 14 14 14 13 13 13 13 13 13 14 13 13 13 13 12 12 12 12 12 12 12 11 11 10 10 10 10 10 10 10 10 10 10 11 11
15 15 15 14 14 14 14 14 13 13 13 13 13 13 13 13 13 13 13 12 12 12 12 11 11 11 11 11 11 11 10 10 10 10 10 10 10 10 9 9 9 9 9
15 15 14 14 14 14 13 13 13 13 13 12 12 12 12 12 12 12 12 12 12 11 11 11 11 10 11 11 10 10 10 10 10 10 10 9 9 9 9 9 9 8 8
14 14 14 14 13 13 13 13 12 12 12 12 12 11 11 11 11 11 11 11 11 11 10 10 10 10 10 9 10 9 9 9 9 9 9 9 8 8 8 8 8 8 8
14 13 13 13 13 13 12 12 12 12 12 12 11 11 11 11 11 10 10 10 10 10 9 9 9 9 9 9 9 9 8 8 8 8 8 8 8 8 8 8 8 8 8
13 13 12 12 12 12 12 11 11 11 11 11 11 11 11 10 10 10 10 10 10 9 9 9 9 9 8 8 8 8 8 8 8 8 8 8 8 8 7 7 7 8 8
12 12 12 11 11 11 11 11 11 11 10 10 10 10 10 10 10 10 9 9 9 9 9 9 8 8 8 8 8 7 7 7 7 7 7 7 7 7 7 7 7 7 7
12 12 11 11 11 11 10 10 10 10 10 10 10 9 9 9 9 9 9 9 8 8 8 8 8 8 7 7 7 7 7 7 6 7 7 7 7 7 7 7 7 7 7
11 11 11 11 10 10 10 10 10 9 9 9 9 9 9 9 8 8 8 8 8 8 8 7 7 7 7 7 7 7 7 6 6 6 6 6 6 6 6 6 6 6 6
11 11 10 10 10 10 10 10 9 9 9 9 8 8 8 8 8 8 8 8 8 7 7 7 7 7 7 6 6 6 6 6 6 6 6 6 6 6 6 6 6 6 6
11 10 10 10 10 10 10 10 9 9 9 9 8 8 8 8 8 7 7 7 7 7 7 7 6 6 6 6 6 6 6 6 6 6 6 6 6 6 6 6 6 6 6
10 10 10 10 10 10 10 9 9 9 9 8 8 8 8 8 8 7 7 7 7 7 6 6 6 6 6 6 6 6 6 6 5 5 5 5 5 5 5 5 5 6 6
10 10 10 10 10 9 9 9 9 9 8 8 8 7 7 7 7 7 7 6 6 6 6 6 6 6 5 5 5 5 5 5 5 5 5 5 5 5 5 5 5 5 5
10 10 9 9 9 9 9 9 9 8 8 8 8 7 7 7 7 7 6 6 6 6 5 5 5 5 5 5 5 5 5 5 4 4 4 4 5 5 5 5 5 5 5
10 9 9 9 9 9 9 8 8 8 8 7 7 7 7 6 6 6 6 6 5 5 5 5 5 5 4 4 4 4 4 4 4 4 4 4 4 4 4 4 4 4 4
9 9 9 9 9 9 8 8 8 7 7 7 7 6 6 6 6 6 5 5 5 5 5 5 5 4 4 4 4 4 4 4 4 4 4 4 4 4 4 4 4 4 4
9 9 9 9 8 8 8 8 8 7 7 7 6 6 6 6 6 5 5 5 5 5 4 4 4 4 4 4 4 4 4 4 4 4 4 4 4 4 4 4 4 4 4
Wind_Speed
6 5 5 5 5 5 4 4 4 4 4 4 4 4 4 5 5 5 6 5 6 6 6 6 7 7 5 5 5 6 6 6 7 7 5 4 3 4 3 3 4 4 4
4 4 4 3 3 3 3 3 3 3 3 3 3 3 3 4 4 5 5 5 5 5 5 4 5 5 5 5 4 5 5 5 6 7 5 4 3 3 2 2 2 2 0
4 4 3 3 2 2 2 2 2 2 2 2 2 2 2 2 3 3 4 4 3 3 3 3 4 4 4 4 4 4 4 4 4 5 5 3 3 2 2 2 1 1 1
5 4 4 3 2 2 1 1 1 2 2 1 1 2 2 2 2 2 2 2 1 1 1 2 3 3 4 4 3 3 3 3 3 3 3 2 2 1 1 1 1 0 1
5 5 4 4 3 3 2 1 1 1 2 2 2 1 1 1 1 1 1 1 1 1 1 1 3 4 6 4 3 3 2 2 2 2 2 2 1 1 1 1 1 0 0
5 5 5 4 4 3 2 2 1 2 2 2 2 2 2 2 4 4 1 1 2 2 2 2 3 4 6 7 8 7 5 3 2 2 1 1 2 2 2 1 1 1 1
5 5 5 5 4 4 3 3 2 3 3 3 3 3 4 4 6 4 3 3 3 3 3 3 3 4 5 5 7 8 9 9 6 3 3 3 3 3 2 2 2 2 2
6 5 5 5 5 4 4 4 4 4 4 4 5 5 5 5 6 4 3 5 5 5 5 5 5 5 5 5 7 8 9 9 8 6 6 5 5 5 3 1 1 1 1
6 5 5 5 5 5 5 5 5 6 6 6 5 6 6 6 7 5 2 5 6 7 7 8 7 7 9 6 7 8 8 7 10 11 10 8 9 8 6 3 2 1 1
6 6 5 5 6 6 6 6 6 7 7 8 8 7 8 7 8 7 4 5 6 6 8 9 11 10 10 8 7 7 7 6 6 7 7 6 7 8 8 6 4 3 2
6 6 6 6 6 6 6 6 6 7 7 7 8 8 8 8 9 10 8 5 6 6 7 7 8 11 11 10 8 7 6 4 5 6 6 6 6 6 7 8 7 5 5
7 7 7 6 6 6 7 6 6 7 7 7 7 8 7 8 9 10 11 10 7 8 7 7 8 9 10 10 9 7 6 4 5 5 6 6 6 6 7 7 7 7 6
8 8 7 7 7 6 6 6 6 5 5 5 6 6 6 6 7 10 11 11 10 8 9 10 9 7 7 9 9 6 4 4 5 5 5 6 5 5 4 4 4 4 3
9 8 7 8 8 8 6 5 5 4 5 5 5 6 6 6 5 5 6 7 9 9 8 9 7 6 7 7 6 5 5 6 5 5 5 5 4 4 4 4 4 4 3
9 8 8 8 9 9 9 9 7 8 6 5 5 5 5 6 6 7 5 5 5 5 5 6 6 6 6 6 6 6 5 5 5 5 5 4 4 5 4 5 5 5 4
8 8 7 7 8 8 9 10 16 13 14 15 13 9 9 9 9 10 11 10 7 3 4 6 6 5 5 5 5 5 5 5 5 5 5 5 5 5 4 4 5 5 5
8 7 7 7 7 7 8 8 8 9 13 15 13 12 11 9 9 8 8 7 4 2 5 6 5 5 4 4 4 4 4 5 4 4 4 5 4 4 4 4 5 5 5
9 8 7 7 7 7 7 7 7 7 7 7 9 10 9 8 7 5 3 4 5 4 5 5 4 4 4 4 4 4 4 4 3 3 4 4 4 4 4 5 5 6 6
8 7 7 7 7 7 7 7 7 7 7 7 7 7 6 7 6 3 1 3 5 4 4 4 4 3 4 4 4 3 3 3 3 3 3 4 4 4 4 5 4 4 5
7 8 7 7 7 7 6 6 6 6 6 6 6 6 5 4 4 4 3 3 4 4 4 4 3 3 3 3 3 3 3 3 3 3 4 4 4 4 5 5 5 5 5
8 8 8 7 7 7 6 6 6 6 6 6 6 5 3 3 4 4 3 3 4 4 4 3 3 3 3 3 3 3 4 4 4 4 4 4 4 4 5 5 5 5 5
8 8 7 6 7 6 6 6 6 6 6 7 6 6 1 1 3 4 4 3 3 3 3 3 3 3 4 3 4 4 4 4 4 4 4 5 4 4 5 5 5 5 6
8 8 7 7 7 7 6 6 6 6 5 5 5 5 4 3 4 4 3 3 3 3 3 3 3 3 4 4 5 5 5 5 5 5 5 5 5 5 5 5 6 6 6
7 7 8 7 7 6 6 6 5 5 5 5 4 4 4 3 3 3 3 3 3 4 4 4 4 5 5 5 4 5 6 7 8 6 6 6 6 5 5 5 6 6 6
7 7 7 6 6 6 6 6 5 5 5 4 4 3 3 3 3 3 3 3 3 3 4 4 3 4 4 5 6 7 8 8 8 8 7 6 5 5 6 6 6 6 6
7 7 6 6 6 6 6 5 5 5 4 4 3 3 2 2 2 2 2 2 2 2 2 3 3 4 4 4 6 7 7 8 8 10 9 6 5 5 6 6 6 6 6
Wind_Direction
183 190 201 207 214 219 219 225 233 237 237 237 238 239 239 239 234 227 233 230 230 234 238 240 247 254 254 254 253 255 253 250 256 267 276 279 265 272 277 256 246 238 202
164 174 188 195 199 199 203 224 227 230 230 226 230 234 236 236 230 228 234 232 230 236 243 253 262 260 255 261 260 257 256 252 253 260 264 272 273 270 271 278 288 277 250
140 147 155 158 152 164 191 215 218 208 209 216 213 225 241 245 237 233 228 225 227 243 258 268 275 278 273 271 266 266 267 261 254 257 264 268 273 282 277 268 295 347 0
132 129 127 123 118 126 147 171 183 177 176 194 192 202 218 234 238 237 223 212 209 236 282 290 294 292 286 282 272 270 271 271 261 257 266 271 276 294 288 270 293 337 335
120 114 108 103 94 88 85 100 135 150 165 166 153 156 172 179 240 219 204 173 144 112 36 22 28 27 25 8 340 329 309 290 281 269 274 295 324 337 311 296 291 293 28
115 111 106 100 91 83 80 87 107 117 122 122 117 115 98 87 60 58 68 95 82 69 60 55 59 54 63 66 54 45 29 8 344 339 355 13 357 344 351 331 298 295 308
111 107 107 105 94 84 89 95 113 118 111 103 96 95 90 70 65 69 73 95 87 73 64 58 55 58 63 78 80 73 58 50 41 34 47 26 16 9 359 11 8 346 344
112 107 103 102 97 90 93 100 100 100 99 90 84 83 83 68 61 66 86 100 86 73 64 58 63 55 45 65 78 71 63 52 52 59 59 44 37 26 21 31 22 86 101
110 104 100 101 100 96 90 88 90 91 89 88 85 82 79 65 49 46 48 107 93 82 72 61 61 66 44 53 84 83 76 70 72 73 70 67 59 42 18 19 14 359 24
109 105 99 98 99 97 93 90 91 92 91 88 79 75 75 69 51 39 25 96 93 88 81 71 60 57 47 40 75 78 74 66 66 71 71 68 65 60 44 25 11 5 5
110 108 102 98 99 98 92 90 94 96 93 88 84 75 69 66 66 49 31 71 88 89 85 79 68 61 59 50 56 66 53 46 70 70 70 63 58 52 47 43 28 18 15
109 106 102 99 98 97 96 93 94 100 102 99 94 86 77 73 65 61 51 48 54 84 81 81 80 72 70 62 62 49 25 20 65 65 60 51 47 44 43 42 40 37 32
112 108 104 100 95 96 98 102 106 107 105 104 101 95 87 81 79 79 74 69 63 80 82 84 88 89 95 81 68 45 41 54 56 57 56 50 44 37 33 43 52 49 49
115 110 108 105 97 86 77 77 81 83 92 97 95 95 95 89 79 83 91 92 99 97 98 110 116 91 84 85 80 61 52 46 41 46 42 41 34 32 25 19 15 11 18
114 112 110 104 98 88 73 53 60 55 44 62 83 89 93 92 65 47 73 85 85 88 103 99 89 83 76 71 66 57 52 51 44 39 34 30 27 24 19 14 6 1 3
120 119 117 114 111 108 101 82 55 58 57 53 49 64 75 79 83 72 67 64 58 33 87 90 84 78 72 67 64 61 53 45 36 32 30 26 19 13 9 8 2 1 3
120 120 118 117 118 116 115 113 104 80 69 63 60 67 82 90 86 86 90 90 70 39 86 84 79 72 66 61 55 51 49 45 27 23 20 16 8 3 1 3 5 358 356
119 114 118 118 118 118 117 117 118 118 110 93 77 77 89 93 90 90 124 135 97 81 78 78 76 71 63 52 46 42 40 37 24 15 14 8 360 356 355 352 360 354 348
119 121 117 117 119 117 116 117 115 114 113 113 112 103 108 121 116 90 85 89 87 85 79 77 69 62 56 47 38 33 27 23 12 1 9 0 354 349 348 343 348 346 328
110 105 115 120 119 118 117 116 116 118 117 114 113 115 130 137 113 107 93 75 84 82 75 74 64 51 45 35 28 17 12 17 9 357 0 349 345 343 341 336 338 335 334
121 121 124 120 116 117 117 114 113 115 113 108 100 84 26 117 109 104 91 75 67 68 61 52 50 43 38 22 13 11 7 7 1 351 347 339 339 338 332 333 334 332 334
124 125 124 119 119 116 116 117 116 114 114 112 111 113 75 83 98 97 91 81 69 59 53 33 29 34 27 17 11 5 3 2 357 347 338 331 330 329 330 334 336 335 336
124 123 121 118 117 119 125 118 117 116 116 115 115 118 122 102 92 92 94 89 74 58 49 40 28 33 29 16 11 8 3 359 349 340 329 326 323 323 325 330 329 328 336
125 125 123 123 125 129 122 119 118 117 117 116 114 113 112 102 92 88 80 74 69 61 50 40 34 34 25 10 8 17 18 358 339 328 321 315 315 322 325 326 326 331 332
129 130 128 128 128 125 122 122 121 120 119 119 120 118 116 110 103 96 84 75 65 54 48 40 35 36 32 23 17 16 16 1 345 332 315 308 317 324 324 324 331 332 331
130 130 131 129 127 128 129 127 125 127 128 125 124 127 126 119 112 103 91 72 57 57 46 47 43 37 29 27 29 22 13 359 344 331 316 309 318 326 328 321 326 323 323
Height
1530 1531 1532 1534 1535 1536 1537 1538 1539 1539 1539 1540 1540 1541 1541 1542 1543 1543 1544 1544 1545 1546 1546 1547 1547 1547 1548 1548 1548 1548 1549 1549 1548 1548 1549 1549 1548 1548 1548 1548 1547 1547 1546
1529 1530 1531 1532 1533 1534 1535 1535 1536 1536 1537 1537 1538 1538 1539 1539 1540 1540 1541 1541 1542 1542 1543 1544 1544 1544 1544 1544 1544 1544 1544 1544 1544 1544 1544 1544 1544 1544 1543 1543 1543 1543 1542
1528 1529 1530 1531 1531 1532 1533 1533 1534 1534 1535 1535 1536 1536 1537 1537 1537 1538 1538 1539 1539 1540 1540 1540 1541 1541 1541 1541 1540 1540 1540 1540 1540 1540 1540 1539 1539 1540 1539 1539 1539 1538 1538
1528 1529 1529 1530 1530 1531 1531 1531 1532 1532 1533 1533 1534 1534 1535 1535 1535 1536 1536 1537 1537 1537 1537 1538 1538 1538 1538 1537 1537 1537 1537 1537 1536 1536 1536 1536 1535 1535 1535 1535 1535 1535 1535
1528 1528 1528 1529 1529 1529 1530 1530 1530 1531 1531 1532 1533 1533 1533 1534 1534 1534 1535 1535 1535 1535 1536 1536 1536 1535 1535 1535 1534 1534 1534 1534 1533 1533 1532 1532 1532 1532 1532 1532 1532 1532 1531
1527 1528 1528 1528 1528 1529 1529 1529 1529 1530 1530 1531 1532 1532 1532 1532 1533 1533 1534 1534 1534 1534 1534 1535 1535 1534 1533 1533 1533 1532 1532 1531 1531 1531 1531 1530 1530 1530 1530 1530 1530 1530 1529
1527 1528 1528 1528 1528 1528 1528 1528 1529 1529 1530 1531 1531 1531 1532 1532 1532 1532 1533 1533 1533 1534 1534 1534 1534 1533 1533 1532 1532 1531 1530 1530 1530 1530 1529 1529 1529 1528 1528 1528 1528 1528 1527
1527 1528 1528 1528 1528 1528 1528 1529 1529 1529 1530 1530 1531 1531 1531 1531 1532 1532 1532 1533 1533 1533 1533 1533 1533 1532 1532 1532 1531 1531 1530 1529 1529 1529 1529 1528 1528 1527 1527 1528 1527 1527 1527
1526 1527 1528 1529 1529 1529 1529 1529 1529 1530 1530 1531 1531 1530 1531 1531 1531 1532 1532 1533 1533 1533 1533 1533 1532 1532 1532 1531 1531 1530 1530 1530 1530 1529 1529 1529 1528 1528 1527 1528 1528 1528 1527
1526 1527 1528 1529 1529 1529 1530 1530 1530 1531 1531 1531 1531 1531 1531 1531 1531 1532 1533 1533 1533 1533 1533 1533 1532 1532 1532 1532 1532 1531 1531 1531 1531 1531 1530 1530 1530 1529 1528 1527 1528 1528 1527
1526 1527 1528 1529 1529 1530 1530 1531 1532 1532 1532 1532 1532 1532 1532 1532 1532 1532 1533 1533 1534 1534 1534 1533 1533 1533 1533 1533 1533 1532 1532 1533 1533 1533 1533 1532 1531 1530 1529 1528 1527 1527 1526
1526 1527 1528 1529 1530 1531 1531 1532 1532 1533 1533 1534 1534 1534 1534 1533 1533 1533 1534 1534 1534 1534 1534 1535 1535 1535 1535 1534 1534 1534 1534 1534 1535 1535 1534 1534 1533 1532 1530 1529 1527 1526 1526
1526 1527 1528 1529 1530 1531 1532 1533 1534 1534 1535 1535 1536 1535 1535 1535 1535 1535 1535 1536 1536 1535 1536 1536 1536 1537 1537 1537 1536 1536 1536 1537 1537 1536 1536 1535 1534 1533 1532 1530 1529 1528 1527
1526 1527 1528 1530 1531 1532 1533 1534 1535 1536 1536 1537 1537 1537 1537 1537 1537 1537 1537 1538 1538 1538 1538 1539 1539 1539 1539 1539 1538 1538 1538 1538 1538 1538 1537 1536 1536 1535 1534 1532 1531 1530 1529
1526 1527 1529 1530 1531 1532 1533 1534 1535 1535 1536 1537 1538 1538 1538 1538 1538 1539 1539 1539 1539 1540 1540 1541 1542 1542 1542 1541 1541 1540 1540 1540 1539 1539 1538 1537 1537 1536 1535 1533 1532 1530 1529
1527 1528 1530 1531 1532 1533 1534 1534 1535 1536 1537 1537 1538 1538 1538 1539 1539 1540 1540 1540 1541 1541 1543 1543 1543 1543 1543 1543 1542 1542 1542 1541 1540 1540 1539 1538 1537 1536 1535 1534 1532 1531 1529
1528 1529 1531 1532 1534 1535 1536 1536 1537 1538 1538 1539 1539 1540 1540 1541 1541 1541 1542 1542 1543 1543 1544 1544 1544 1544 1545 1545 1544 1544 1543 1542 1541 1541 1540 1539 1538 1536 1535 1534 1533 1531 1530
1528 1530 1531 1533 1534 1536 1537 1538 1539 1540 1540 1540 1541 1541 1542 1543 1543 1543 1543 1545 1545 1545 1546 1546 1546 1546 1546 1546 1545 1545 1544 1543 1542 1541 1540 1539 1538 1537 1535 1534 1533 1531 1530
1529 1531 1533 1534 1535 1537 1538 1540 1541 1542 1542 1543 1543 1544 1544 1545 1545 1545 1545 1547 1547 1547 1547 1548 1548 1547 1547 1547 1546 1545 1544 1543 1542 1541 1540 1539 1538 1536 1535 1534 1533 1531 1529
1530 1532 1533 1535 1537 1538 1540 1541 1542 1543 1544 1545 1545 1546 1547 1547 1548 1548 1548 1548 1549 1548 1549 1549 1548 1548 1547 1547 1546 1546 1545 1544 1542 1542 1540 1539 1538 1536 1535 1534 1532 1531 1529
1531 1533 1535 1537 1538 1539 1541 1542 1543 1544 1545 1546 1546 1546 1547 1549 1549 1549 1549 1549 1549 1549 1549 1549 1549 1548 1547 1547 1546 1546 1545 1544 1542 1541 1540 1539 1537 1536 1534 1533 1532 1530 1528
1533 1535 1536 1538 1539 1540 1541 1543 1544 1545 1546 1546 1547 1547 1548 1549 1549 1549 1549 1549 1549 1549 1549 1549 1549 1548 1547 1546 1546 1545 1544 1543 1541 1540 1539 1538 1536 1535 1534 1532 1531 1529 1528
1535 1536 1537 1539 1540 1541 1543 1544 1545 1546 1547 1547 1548 1549 1549 1549 1550 1550 1550 1550 1549 1549 1549 1548 1548 1548 1547 1546 1545 1544 1543 1541 1540 1539 1537 1537 1536 1535 1533 1532 1530 1529 1527
1536 1537 1539 1540 1541 1543 1544 1545 1546 1547 1547 1548 1549 1550 1550 1550 1550 1550 1550 1550 1549 1549 1548 1548 1548 1547 1546 1545 1545 1544 1542 1540 1539 1538 1536 1535 1534 1533 1532 1531 1529 1528 1526
1537 1539 1540 1541 1542 1544 1545 1546 1547 1548 1548 1549 1550 1550 1551 1551 1551 1550 1550 1550 1549 1549 1548 1547 1547 1546 1545 1544 1543 1542 1540 1539 1537 1536 1535 1534 1533 1532 1531 1529 1528 1526 1525
1538 1540 1541 1542 1543 1545 1546 1547 1548 1548 1549 1550 1550 1551 1551 1551 1551 1551 1551 1550 1550 1549 1548 1547 1546 1546 1545 1544 1542 1541 1539 1538 1536 1535 1534 1533 1532 1531 1529 1528 1527 1525 1523